Regional Weather Roundup
Issued by NWS

Home | Current Version | Previous Version | Graphics & Text | Print | Product List | Glossary On
Versions: 1 2 3 4 5 6 7 8 9 10 11 12 13 14 15 16 17 18 19 20 21 22 23 24 25 26 27 28 29 30 31 32 33 34 35 36 37 38 39 40 41 42 43 44 45 46 47 48 49 50
000
ASUS43 KDMX 030107
RWRIA

WEATHER ROUNDUP FOR IOWA
NATIONAL WEATHER SERVICE DES MOINES IA
800 PM CDT TUE SEP 02 2014

NOTE: "FAIR" INDICATES FEW OR NO CLOUDS BELOW 12,000 FEET WITH NO
SIGNIFICANT WEATHER AND/OR OBSTRUCTIONS TO VISIBILITY.

* - THESE STATIONS ARE NOT NWS STATIONS...THUS NOT UNDER NWS
QUALITY CONTROL.  THEY ALSO DO NOT REPORT WEATHER SUCH
AS PRECIPITATION OR FOG.

IAZ001>003-012>014-020>022-031>034-043>046-030200-
   NORTHWEST IOWA

CITY           SKY/WX    TMP DP  RH WIND       PRES   REMARKS
CARROLL *      CLEAR     66  63  88 CALM      29.93S
CHEROKEE *     CLEAR     66  63  88 CALM      29.92S
DENISON *      CLEAR     68  64  88 E5        29.91S
LE MARS *      CLEAR     70  61  73 S5        29.91S
ORANGE CITY *  CLEAR     70  59  68 S3        29.92S
SHELDON *      CLEAR     64  61  88 S3        29.90F
SIOUX CITY     CLEAR     71  62  73 SE5       29.90F
SPENCER        CLEAR     67  61  81 SW5       29.92S
STORM LAKE *   CLEAR     66  64  94 S5        29.93S
$$

IAZ055>058-069>071-079>083-090>094-030200-
   SOUTHWEST IOWA

CITY           SKY/WX    TMP DP  RH WIND       PRES   REMARKS
ATLANTIC *     CLEAR     68  64  88 CALM      29.92S
AUDUBON *      CLEAR     70  64  83 CALM      29.94F
CLARINDA *     CLEAR     68  66  94 CALM      29.96R
COUNCIL BLFS * CLEAR     70  63  78 SE5       29.92R
CRESTON *      CLEAR     70  63  78 E3        29.96R
HARLAN  *      CLEAR     68  64  88 CALM      29.96S
LAMONI         CLEAR     73  62  68 CALM      29.96R
RED OAK *      CLEAR     68  64  88 CALM      29.94R
SHENANDOAH *   CLEAR     72  64  78 CALM      29.94R
$$

IAZ047>049-059>061-072>074-084-030200-
   CENTRAL IOWA

CITY           SKY/WX    TMP DP  RH WIND       PRES   REMARKS
AMES           CLEAR     68  62  81 W3        29.93R
ANKENY *       CLEAR     70  61  73 CALM      29.93R
CHARITON *       N/A     72  61  68 CALM      29.95R
DES MOINES     PTCLDY    76  57  51 CALM      29.93R
GRINNELL*      CLEAR     68  61  77 CALM      29.95R
KNOXVILLE *    CLEAR     73  61  64 CALM      29.93S
MARSHALLTOWN   CLEAR     70  60  70 MISG      29.93R
PELLA *        CLEAR     70  63  78 CALM      29.95R
PERRY *          N/A     68  63  83 CALM      29.94R
$$

IAZ004>006-015-016-023>025-035-036-030200-
   NORTH CENTRAL IOWA

CITY           SKY/WX    TMP DP  RH WIND       PRES   REMARKS
ALGONA *       CLEAR     68  63  83 SW3       29.93R
CLARION *      CLEAR     68  63  83 SW3       29.92F
ESTHERVILLE    CLEAR     65  58  78 SW5       29.91S
FORT DODGE *   CLEAR     66  61  82 CALM      29.93S
MASON CITY     CLEAR     68  59  73 SW5       29.94R
FOREST CITY *  CLEAR     66  61  82 CALM      29.92S
IOWA FALLS *     N/A     66  63  88 SW3       29.94S
$$

IAZ007>011-017>019-026>030-037>042-050>054-066-030200-
   NORTHEAST IOWA

CITY           SKY/WX    TMP DP  RH WIND       PRES   REMARKS
CEDAR RAPIDS   CLEAR     70  59  68 NW6       29.93R
CHARLES CITY * CLEAR     64  61  88 SW3       29.92F
CLINTON *      CLEAR     66  61  82 NW6       29.95R
DECORAH *      CLEAR     70  59  68 CALM      29.91S
DUBUQUE        CLEAR     67  60  78 CALM      29.93R
MONTICELLO *   CLEAR     66  63  88 CALM      29.93R
OELWEIN *      CLEAR     68  63  83 CALM      29.93S
WATERLOO       CLEAR     70  60  70 CALM      29.91S
$$

IAZ064-065-067-068-078-030200-
   EAST CENTRAL IOWA

CITY           SKY/WX    TMP DP  RH WIND       PRES   REMARKS
DAVENPORT      CLEAR     69  62  78 CALM      29.93R
IOWA CITY      CLEAR     69  62  78 W3        29.94R
MT. PLEASANT * CLEAR     72  61  68 CALM      29.95R
MUSCATINE *    CLEAR     72  63  73 SW5       29.94R
QUAD CITIES    CLEAR     69  62  78 SW3       29.92R
$$

IAZ062-063-075>077-085>089-095>099-030200-
   SOUTHEAST IOWA

CITY           SKY/WX    TMP DP  RH WIND       PRES   REMARKS
BURLINGTON     CLEAR     72  61  68 NW3       29.94R
FAIRFIELD *    CLEAR     70  63  78 CALM      29.95R
KEOKUK *       CLEAR     72  66  83 CALM      29.94R
OSKALOOSA *      N/A     70  64  83 CALM      29.96R
CENTERVILLE *  CLEAR     66  66 100 CALM      29.97R
OTTUMWA        CLEAR     70  61  73 CALM      29.94R
WASHINGTON *   CLEAR     70  64  83 W3        29.95R
$$

ABBREVIATIONS USED IN REMARKS
   TC - TEMPERATURES IN CELSIUS
  WCI - WIND CHILL INDEX
   HX - HEAT INDEX
  VSB - VISIBILITY
$$




USA.gov is the U.S. government's official web portal to all federal, state and local government web resources and services.